Volver al catálogo

NUSTAR

ActivoCienciaVLEO
NORAD 38358·PAYLOAD·🇺🇸 United States

Lanzado Jun 13, 2012 desde Ronald Reagan Space and Missile Test Range

Loading…

Próximos Pases (próximas 24 horas)

TLE

ActualizadoSource: Space-Track

Época: Sep 14, 2026, 16:00 UTC

1 38358U 12031A   26257.66671296  .00005254  00000-0  26549-3 0  9994
2 38358   6.0257  82.5428 0007913 355.1263 129.3736 15.09532350  1301

Sigue NUSTAR en tiempo real con AllMySat

Download on the App Store